Wetbulb
54.49 54.79 54.78 54.72 54.68 54.90 55.66 56.29 56.30 56.14 56.25 56.26 56.25 56.20 56.21 56.64 56.28 49.39 45.76 52.20 55.49 64.90 66.36 63.90 60.56 59.97 57.53 54.92 55.54 52.45 44.68 42.01 45.60 46.59 47.72 49.10 48.38 51.80 53.53 51.84 51.72 54.03 52.81 54.50 55.55
53.07 52.97 53.18 54.17 54.49 54.45 54.52 54.82 55.36 55.59 55.94 56.23 56.15 56.00 56.01 56.78 51.50 47.34 54.88 61.42 63.98 66.42 59.01 58.97 57.28 57.28 52.47 52.76 53.27 50.20 44.02 45.20 50.17 49.78 49.15 49.55 49.81 51.21 51.81 52.12 53.04 52.36 54.24 55.69 54.67
53.76 53.52 53.28 52.44 52.58 53.21 53.88 54.07 54.31 54.65 55.20 55.84 55.89 55.84 55.86 55.39 44.47 43.62 61.41 60.85 64.06 65.03 55.47 59.93 58.55 55.41 50.39 50.43 51.44 49.63 47.02 51.26 50.74 52.62 51.83 51.27 52.34 53.38 50.85 49.65 52.50 51.37 54.68 53.36 53.34
54.31 54.08 53.77 53.77 53.51 52.61 52.27 52.75 54.08 54.43 54.54 54.49 54.80 55.43 55.97 50.75 34.88 49.49 65.94 67.05 68.07 61.24 52.81 52.42 55.01 50.84 48.11 48.03 52.23 46.40 51.05 52.93 52.16 53.10 51.18 51.63 53.43 53.26 53.68 53.67 56.48 56.64 55.11 53.42 52.58
53.56 53.73 53.94 53.92 53.81 53.65 53.25 52.82 52.62 53.02 53.81 53.92 54.07 54.79 51.40 43.38 41.22 48.18 60.65 56.86 59.13 57.60 51.47 50.31 49.15 51.10 47.35 48.58 50.15 48.30 50.60 52.15 53.10 52.38 52.19 54.56 52.53 52.99 53.20 56.96 57.64 56.26 53.43 53.69 53.15
53.24 53.14 52.94 53.23 53.36 53.46 53.89 53.04 53.17 52.66 52.30 53.23 53.65 53.85 47.65 39.84 49.66 47.96 51.96 48.49 48.67 53.85 52.73 50.44 49.00 49.80 44.88 44.64 45.98 48.69 50.53 50.80 50.38 51.50 52.99 51.90 51.76 51.36 53.68 56.77 54.63 54.02 52.67 53.33 53.34
53.31 52.94 52.82 52.64 52.83 52.92 53.18 53.17 52.94 53.32 53.04 52.51 52.97 50.70 45.08 42.79 52.23 53.06 51.91 47.86 46.81 47.91 50.37 53.51 52.76 49.16 46.57 43.26 45.80 45.27 41.72 44.88 46.25 47.86 47.66 51.06 47.10 47.97 53.59 53.97 52.57 52.58 52.36 52.83 53.71
52.92 53.27 52.67 52.55 52.60 52.83 52.79 53.11 53.19 53.20 53.14 53.46 52.50 48.41 40.23 50.65 52.26 50.55 51.46 50.05 51.88 49.52 48.25 51.92 54.30 48.33 44.49 45.56 45.11 41.79 40.66 37.79 43.96 47.54 47.59 48.31 41.38 48.35 52.33 50.92 51.22 51.64 51.90 51.30 52.54
52.28 52.84 52.69 52.44 52.41 52.66 52.92 52.82 52.88 53.30 53.24 52.95 47.42 44.51 37.69 51.26 47.89 51.01 50.80 47.49 48.99 48.93 46.22 49.12 51.34 46.38 43.96 41.32 37.36 37.95 35.92 36.85 39.94 46.09 45.42 45.37 42.45 48.40 50.44 50.17 50.08 51.45 51.25 51.02 51.77
52.22 52.53 52.69 52.24 52.24 52.53 52.68 52.19 51.59 50.11 49.46 49.67 47.84 40.00 42.48 41.30 48.51 49.85 50.95 49.61 46.31 44.38 43.74 43.22 44.40 41.39 38.94 37.76 33.02 34.92 35.04 38.12 38.54 43.59 42.52 42.08 42.35 46.70 49.37 49.23 49.46 50.02 50.95 50.98 50.60
52.15 52.44 52.43 52.43 51.88 52.10 49.98 42.84 40.48 39.74 42.73 38.29 39.36 39.82 42.48 48.41 51.03 48.99 49.06 47.31 45.79 41.95 36.64 40.42 37.50 37.59 40.21 42.00 41.26 41.04 38.57 37.62 42.64 45.44 42.71 41.50 42.53 46.12 48.34 47.59 47.71 48.32 49.00 49.61 49.26
51.75 51.76 51.63 52.01 51.72 51.98 47.81 37.59 42.00 42.10 35.33 42.68 42.96 43.34 45.47 47.27 41.61 45.68 48.44 42.86 40.95 37.36 39.38 37.63 35.78 41.22 44.18 43.88 42.25 41.02 38.86 38.83 43.29 45.04 42.94 42.53 42.29 45.97 47.28 47.38 48.34 49.48 50.05 49.72 48.79
51.62 51.62 51.61 51.62 51.65 44.97 39.60 41.33 45.23 45.38 35.02 39.05 42.77 42.00 42.51 44.86 40.76 42.05 47.42 44.13 40.37 37.06 37.65 36.24 39.21 43.28 43.84 42.95 41.74 41.39 39.82 40.39 40.41 42.87 43.57 41.99 39.98 43.31 47.32 47.76 49.01 50.39 50.84 50.38 50.01
51.35 51.71 51.75 51.65 44.71 41.48 41.67 43.81 45.53 47.26 30.76 34.06 38.60 41.53 43.29 42.97 39.44 46.39 48.33 44.65 42.10 36.65 37.89 36.98 41.62 41.53 41.65 41.52 43.11 38.01 44.73 44.25 42.40 38.45 32.77 41.26 31.44 40.77 44.59 45.85 47.65 48.63 47.90 49.28 49.67
51.21 51.49 51.75 51.18 44.80 42.10 43.17 45.17 45.62 41.07 17.57 36.01 39.87 47.51 44.56 39.87 41.76 42.44 47.51 44.88 40.60 39.54 38.19 35.30 37.84 38.35 38.89 41.35 44.75 40.74 45.64 44.13 42.04 37.02 33.93 36.74 33.92 38.45 42.34 43.53 45.86 48.03 48.60 47.91 49.20
51.48 51.26 50.86 47.63 46.87 44.45 45.50 44.87 40.71 29.95 19.96 33.54 39.22 37.30 36.49 41.18 41.66 44.35 42.31 44.57 45.97 40.46 40.14 38.98 43.86 41.48 41.34 43.73 45.38 45.49 42.30 40.14 38.49 35.53 29.01 36.65 36.08 35.73 39.88 43.67 46.14 47.58 48.78 49.08 50.03
51.34 51.06 49.17 47.67 41.01 43.21 43.70 39.44 28.58 21.41 34.97 31.70 32.84 36.64 36.26 35.06 38.15 40.35 39.59 36.24 36.04 33.22 33.26 37.16 38.21 40.79 42.88 39.34 42.06 41.68 35.70 27.34 25.83 26.67 27.55 38.42 35.69 38.93 43.51 46.10 47.84 48.17 47.86 48.80 50.74
50.22 49.88 46.38 47.16 44.00 45.03 40.19 32.00 21.81 28.78 29.65 36.58 34.90 35.89 32.84 35.61 34.81 35.97 36.57 34.50 38.28 36.95 35.41 33.32 30.40 39.30 42.64 39.80 37.42 38.57 36.65 29.84 24.69 25.95 31.58 38.57 33.79 38.63 46.37 49.58 49.35 48.90 48.68 49.24 49.84
48.46 41.53 40.83 44.96 45.18 45.87 38.57 24.41 22.78 29.48 33.72 32.84 33.63 30.64 31.01 34.07 33.76 34.06 32.87 35.29 37.99 39.61 32.16 32.92 34.26 42.20 43.47 43.69 42.98 37.13 35.14 38.31 33.08 34.97 30.82 34.47 38.14 43.74 46.45 46.88 47.91 48.06 48.86 48.45 49.48
42.57 41.33 38.11 44.35 44.98 43.97 34.09 25.64 28.49 34.64 34.66 33.83 27.35 31.48 26.93 30.05 31.10 31.74 31.96 37.84 37.02 39.65 39.64 36.15 31.25 41.01 42.25 43.78 43.23 40.24 41.71 32.81 32.13 27.24 25.84 32.19 34.75 37.67 42.93 45.92 47.94 47.68 47.64 48.10 49.34
36.72 32.88 38.29 47.02 46.11 38.29 23.54 26.29 31.36 36.57 37.00 31.75 30.50 29.11 30.25 29.90 32.61 30.56 31.07 35.87 38.38 37.54 39.75 36.83 33.78 35.60 40.44 38.54 36.76 35.20 36.30 34.15 35.26 32.01 27.84 27.30 33.32 41.98 44.50 45.96 47.23 47.60 48.21 48.32 49.47
37.54 25.99 39.57 48.23 35.52 34.93 26.22 32.38 36.60 34.59 36.73 34.49 34.39 32.45 31.10 32.51 31.38 31.05 30.97 33.53 39.87 39.16 33.01 36.80 32.85 31.52 36.05 39.84 43.65 41.52 36.29 35.61 34.09 29.11 32.60 32.70 33.90 44.24 45.81 46.51 48.05 48.20 48.80 48.71 49.77
35.41 32.97 42.04 42.89 29.33 27.55 32.82 33.59 35.00 33.82 34.26 33.52 32.79 35.07 34.12 31.18 28.32 32.82 34.36 40.05 38.83 37.80 34.30 37.98 31.82 28.07 31.16 35.64 38.90 38.84 38.60 38.85 35.39 33.56 33.78 29.68 32.81 45.00 45.88 46.63 48.11 47.71 48.69 49.25 49.92
33.57 27.25 32.03 37.75 35.10 33.40 30.38 29.44 30.26 36.77 34.93 34.58 32.76 33.31 30.61 29.96 33.48 30.97 32.98 37.44 39.49 38.52 41.99 40.71 31.71 31.27 28.95 33.13 36.23 36.15 38.70 39.30 35.07 29.65 33.20 36.89 36.86 42.82 45.35 45.86 46.46 48.09 48.68 48.58 50.11
31.59 26.71 33.63 29.67 29.47 31.19 32.49 30.86 30.07 31.20 35.91 35.91 31.82 32.11 31.52 28.27 31.10 31.28 34.93 36.37 39.17 39.77 39.42 37.07 28.13 33.05 34.58 37.71 38.77 37.58 38.89 39.25 37.10 37.77 34.07 37.43 40.18 42.54 45.39 46.25 47.41 48.56 48.46 48.90 49.55
28.13 34.70 36.23 32.42 33.15 31.49 29.10 30.36 30.44 31.62 34.40 33.07 32.19 33.78 33.16 29.34 31.61 30.51 34.26 35.16 34.51 37.70 37.15 37.67 27.92 31.77 30.65 38.00 38.97 37.60 38.51 39.88 39.80 39.49 38.54 38.87 38.35 44.86 47.05 48.17 49.09 49.76 49.74 49.83 50.27
37.38 41.87 37.30 33.74 31.78 29.17 26.01 30.73 31.62 33.12 34.30 36.19 35.69 33.64 31.52 33.18 36.67 37.52 38.43 37.66 37.58 35.83 35.06 34.74 30.64 27.84 25.33 33.06 34.94 32.78 38.62 38.75 39.46 41.19 40.38 37.47 41.92 44.14 45.55 47.81 48.65 49.17 50.93 51.00 51.44
MSLP
1019.46 1019.23 1018.91 1018.59 1018.39 1018.20 1017.98 1017.67 1017.07 1016.62 1016.32 1016.20 1015.80 1015.56 1015.23 1014.93 1014.18 1013.27 1012.27 1009.66 1009.64 1009.39 1008.97 1009.91 1010.49 1010.79 1011.16 1011.76 1011.72 1012.09 1013.03 1012.90 1011.54 1010.85 1009.20 1008.19 1007.77 1007.40 1006.86 1006.94 1006.70 1006.58 1006.58 1006.24 1006.54
1019.54 1019.19 1018.64 1018.56 1018.18 1017.93 1017.66 1017.32 1016.87 1016.53 1016.42 1016.14 1015.89 1015.56 1015.19 1014.87 1014.11 1012.45 1009.16 1008.93 1009.25 1008.84 1009.12 1009.42 1010.31 1010.92 1011.66 1011.70 1011.82 1011.99 1012.31 1011.33 1009.71 1009.24 1008.51 1008.12 1007.91 1007.57 1007.17 1006.54 1006.21 1006.53 1006.03 1006.36 1006.88
1019.49 1019.27 1019.00 1018.42 1018.12 1017.74 1017.40 1016.95 1016.58 1016.46 1016.34 1016.10 1015.95 1015.66 1015.15 1014.66 1013.64 1009.89 1007.61 1008.02 1008.57 1008.45 1008.63 1008.86 1009.36 1010.93 1011.69 1011.48 1011.29 1011.18 1010.80 1009.54 1009.03 1008.68 1008.67 1008.09 1007.52 1007.65 1007.27 1006.68 1005.89 1006.27 1005.84 1006.30 1006.84
1019.00 1018.62 1018.37 1018.16 1017.85 1017.43 1017.05 1016.88 1016.82 1016.63 1016.14 1015.91 1015.56 1015.20 1014.95 1014.66 1012.38 1008.50 1008.36 1008.60 1008.09 1008.32 1008.43 1008.57 1009.42 1010.85 1011.18 1011.17 1010.52 1010.68 1009.96 1009.08 1008.30 1008.38 1008.66 1008.10 1007.62 1007.18 1006.97 1006.07 1005.62 1005.46 1005.53 1005.96 1006.51
1019.03 1018.65 1018.26 1017.95 1017.61 1017.48 1017.24 1016.94 1016.65 1016.22 1016.00 1015.81 1015.69 1015.31 1015.02 1014.31 1011.15 1008.23 1008.21 1008.54 1008.70 1008.70 1008.24 1008.31 1008.87 1009.91 1010.11 1010.19 1010.52 1010.20 1009.09 1008.69 1008.57 1008.59 1008.12 1007.55 1007.17 1006.89 1006.27 1005.08 1005.19 1005.09 1005.11 1005.26 1005.37
1019.04 1018.73 1018.43 1018.11 1017.82 1017.40 1016.96 1016.53 1016.22 1015.80 1015.78 1015.52 1015.48 1015.29 1015.04 1012.99 1009.97 1009.01 1009.17 1008.68 1008.44 1008.68 1008.71 1008.21 1007.71 1008.43 1009.07 1009.39 1009.83 1009.41 1008.81 1008.55 1008.55 1008.63 1007.71 1007.16 1005.94 1006.58 1005.67 1004.91 1004.89 1004.78 1004.72 1004.62 1004.75
1018.74 1018.37 1017.97 1017.53 1017.04 1016.50 1016.05 1015.62 1015.34 1015.15 1015.20 1015.34 1015.18 1014.88 1013.72 1010.20 1009.50 1009.17 1009.32 1009.24 1008.68 1008.32 1008.25 1008.27 1007.86 1007.91 1008.38 1009.16 1008.98 1008.79 1008.89 1008.66 1008.37 1008.02 1007.40 1006.71 1005.47 1005.63 1004.82 1004.65 1004.61 1004.38 1004.16 1004.01 1003.95
1018.60 1018.18 1017.74 1017.27 1016.79 1016.31 1015.84 1015.46 1015.17 1014.84 1014.51 1014.39 1014.66 1014.53 1012.04 1009.96 1009.36 1009.14 1008.79 1008.60 1008.51 1008.71 1008.09 1007.86 1007.83 1008.44 1008.50 1008.63 1008.70 1009.02 1008.81 1008.42 1007.30 1007.00 1006.76 1006.80 1004.61 1005.17 1004.22 1004.42 1004.27 1003.93 1003.72 1003.47 1003.26
1018.48 1018.07 1017.65 1017.21 1016.68 1016.15 1015.65 1015.02 1014.14 1013.42 1013.19 1013.51 1014.34 1014.26 1011.11 1009.18 1008.88 1007.95 1008.24 1008.07 1007.36 1007.81 1008.18 1007.95 1007.83 1008.38 1008.62 1008.92 1009.35 1009.20 1008.72 1008.12 1007.39 1006.16 1006.53 1006.36 1005.09 1004.41 1004.06 1004.13 1003.91 1003.39 1002.96 1002.92 1002.76
1018.34 1017.89 1017.46 1016.96 1016.34 1015.81 1015.17 1014.25 1013.23 1012.99 1013.19 1013.47 1013.65 1013.77 1010.85 1008.69 1007.91 1006.64 1006.40 1006.97 1007.07 1007.36 1007.95 1008.08 1007.97 1007.96 1008.22 1008.30 1007.46 1008.50 1008.42 1007.70 1007.00 1006.09 1006.21 1006.01 1005.36 1004.41 1003.75 1003.76 1003.39 1002.91 1002.53 1002.50 1002.47
1018.07 1017.58 1017.09 1016.62 1016.22 1015.77 1015.16 1014.48 1013.64 1013.40 1013.10 1012.97 1012.69 1011.71 1009.60 1007.78 1007.05 1005.87 1005.90 1006.77 1007.13 1006.92 1007.21 1007.41 1008.01 1005.90 1005.06 1005.97 1006.59 1007.09 1007.42 1006.98 1005.73 1005.87 1006.33 1006.34 1005.49 1004.19 1003.50 1003.41 1003.07 1002.47 1002.29 1002.03 1001.87
1017.77 1017.24 1016.79 1016.35 1015.91 1015.53 1015.46 1015.29 1014.41 1014.82 1013.39 1011.86 1011.06 1010.41 1009.27 1008.28 1007.97 1006.34 1005.54 1005.77 1006.37 1005.38 1006.54 1007.08 1004.42 1004.69 1005.36 1005.85 1006.05 1006.41 1006.70 1006.21 1005.71 1006.23 1006.55 1006.18 1005.20 1003.89 1003.13 1002.68 1002.17 1001.84 1001.44 1001.19 1001.49
1017.47 1017.01 1016.53 1016.02 1015.57 1015.67 1015.74 1015.30 1014.77 1014.45 1013.70 1010.70 1008.79 1008.28 1007.68 1007.59 1007.47 1005.53 1005.40 1004.27 1004.39 1005.04 1004.72 1003.73 1002.12 1004.28 1004.85 1004.91 1005.67 1005.67 1005.53 1005.60 1005.77 1006.46 1006.37 1006.03 1004.96 1003.69 1002.20 1001.85 1001.41 1000.96 1000.75 1000.64 1000.98
1017.21 1016.71 1016.27 1015.83 1015.44 1015.73 1015.35 1014.80 1014.85 1014.45 1013.38 1009.54 1007.72 1006.47 1006.27 1006.23 1005.29 1004.15 1003.77 1003.65 1003.53 1003.75 1004.45 1003.75 1003.07 1002.95 1003.29 1003.34 1004.20 1004.41 1004.69 1005.78 1006.42 1007.39 1007.39 1006.39 1005.49 1004.33 1002.86 1002.01 1001.30 1000.35 1000.22 1000.33 1001.25
1016.78 1016.40 1016.05 1015.89 1015.89 1015.51 1015.12 1014.69 1014.45 1014.29 1012.25 1007.58 1006.17 1005.02 1005.07 1005.21 1003.84 1001.94 1002.86 1002.96 1002.64 1002.76 1003.00 1001.30 1001.51 1001.96 1001.91 1001.82 1003.28 1003.08 1004.36 1005.54 1006.61 1007.37 1007.62 1007.15 1007.06 1003.68 1003.27 1002.07 1000.89 1000.12 1000.08 1000.59 1001.64
1016.36 1015.97 1015.64 1015.38 1015.32 1014.91 1014.89 1014.84 1014.59 1014.29 1010.59 1007.16 1005.94 1005.50 1005.28 1004.87 1003.82 1002.40 1002.53 1002.92 1002.15 1002.17 1001.44 1001.16 1000.80 1001.10 1000.25 1001.84 1002.68 1003.86 1004.70 1006.15 1006.87 1007.66 1007.54 1006.85 1006.80 1003.53 1002.91 1001.42 1000.62 999.93 1000.22 1001.10 1002.13
1016.02 1015.61 1015.48 1015.28 1014.91 1014.89 1014.97 1014.92 1014.68 1012.64 1009.09 1007.87 1007.27 1006.30 1005.52 1005.17 1003.99 1003.11 1002.66 1002.46 1001.56 1001.85 1001.57 1001.33 1001.09 1000.32 1000.45 1001.46 1002.45 1003.59 1005.04 1007.01 1007.55 1007.79 1006.99 1005.77 1005.88 1002.50 1001.25 1000.43 1000.04 999.79 1000.28 1001.55 1002.44
1015.75 1015.27 1014.98 1014.67 1014.79 1014.70 1015.14 1015.02 1013.76 1011.00 1009.66 1008.62 1007.98 1006.82 1006.38 1006.00 1004.88 1004.29 1003.41 1003.07 1002.71 1001.91 1001.51 1001.48 1001.20 1000.16 999.58 1000.11 1001.29 1002.64 1003.98 1005.09 1006.68 1006.97 1006.06 1004.40 1003.55 1001.45 999.74 999.05 999.10 999.69 1000.23 1001.63 1002.59
1015.49 1015.32 1015.12 1014.56 1014.39 1014.54 1014.85 1014.37 1012.74 1011.48 1010.61 1009.53 1008.43 1007.58 1007.18 1006.81 1006.86 1005.69 1004.80 1003.98 1003.44 1002.99 1002.44 1001.20 1000.25 999.05 998.73 999.38 1000.30 1002.01 1002.64 1003.93 1005.17 1005.65 1005.60 1003.40 1001.89 1000.28 999.22 998.98 999.11 999.72 1000.64 1001.71 1002.59
1015.96 1015.55 1015.09 1014.32 1014.29 1014.39 1014.45 1013.84 1012.65 1011.66 1010.85 1010.13 1009.41 1008.80 1008.24 1007.69 1007.21 1007.14 1005.92 1005.11 1004.50 1003.91 1003.16 1001.30 1000.40 998.85 998.71 999.04 999.39 999.75 1001.60 1003.69 1004.45 1005.17 1004.86 1002.90 1001.64 999.89 998.91 998.50 998.97 999.86 1000.76 1001.87 1002.75
1016.14 1015.75 1014.90 1014.31 1014.54 1014.61 1014.53 1013.84 1012.74 1011.61 1011.02 1010.74 1010.03 1009.60 1009.06 1008.36 1007.60 1007.35 1007.09 1006.75 1005.92 1004.72 1003.43 1002.45 1001.30 999.49 998.76 997.85 998.16 999.72 1000.44 1001.71 1003.03 1003.86 1003.63 1002.97 1000.73 998.60 998.03 997.86 998.51 999.17 1000.23 1001.57 1002.47
1016.74 1016.17 1014.90 1014.38 1014.74 1014.89 1014.59 1013.88 1012.90 1011.68 1011.01 1010.74 1010.21 1009.89 1009.40 1008.81 1008.09 1007.61 1006.99 1007.55 1006.94 1006.58 1005.54 1004.23 1002.83 1000.88 998.95 997.94 997.94 998.46 999.12 999.99 1001.13 1002.13 1002.60 1001.98 999.95 997.75 997.46 997.42 998.02 998.84 999.93 1001.29 1002.34
1017.25 1016.61 1015.17 1014.89 1015.22 1015.26 1014.58 1013.76 1012.90 1011.91 1011.18 1010.79 1010.42 1009.95 1009.71 1009.28 1008.88 1007.69 1006.98 1007.13 1007.78 1007.60 1006.96 1005.72 1003.88 1002.46 1000.28 999.08 998.01 997.64 998.25 999.28 1000.15 1001.17 1001.41 1001.43 999.50 997.59 997.39 997.50 998.00 999.12 999.92 1001.13 1002.18
1017.88 1017.36 1016.45 1016.01 1016.14 1015.64 1015.06 1013.92 1012.97 1012.03 1011.40 1010.83 1010.45 1010.01 1009.88 1009.28 1008.73 1008.03 1007.32 1006.94 1007.11 1007.40 1007.32 1006.67 1005.16 1003.75 1001.40 998.88 998.18 998.35 998.37 998.76 999.55 1000.30 1000.32 999.15 998.84 997.89 997.58 997.59 998.02 998.92 1000.00 1000.87 1001.87
1018.21 1018.18 1017.65 1016.76 1016.18 1015.94 1015.59 1014.56 1013.40 1012.68 1012.08 1011.53 1010.71 1010.33 1010.21 1009.55 1008.76 1007.88 1007.58 1007.34 1006.77 1006.83 1007.65 1007.36 1006.11 1004.41 1002.39 1000.37 999.41 998.14 997.72 997.91 998.06 998.76 998.88 998.19 998.17 997.52 997.28 997.02 997.38 998.48 999.79 1000.76 1001.57
1018.47 1018.11 1017.51 1017.04 1016.39 1015.89 1015.23 1014.30 1013.66 1013.01 1012.47 1011.57 1011.09 1010.49 1010.19 1009.87 1009.17 1008.31 1008.02 1007.65 1007.01 1007.02 1007.65 1007.85 1006.74 1005.35 1002.88 1000.64 999.88 998.80 997.87 997.32 997.18 997.73 997.84 997.66 997.11 996.60 996.21 996.96 997.84 997.89 998.98 999.89 1000.61
1018.13 1017.76 1017.79 1016.82 1016.39 1016.13 1015.26 1014.48 1013.90 1013.46 1012.09 1011.53 1010.98 1010.58 1009.68 1009.13 1008.88 1008.40 1008.09 1007.70 1007.70 1007.43 1007.55 1007.88 1007.44 1006.26 1004.35 1002.16 1000.38 998.59 996.53 997.09 997.19 997.02 997.12 996.89 996.06 996.45 996.52 996.69 997.15 997.37 997.74 998.50 999.41
Wind_Speed
17 17 16 16 16 16 17 17 16 17 18 17 17 18 18 19 20 3 9 12 8 7 8 9 5 2 4 3 3 4 3 5 7 7 8 3 2 0 1 4 3 6 5 5 2
17 17 19 18 17 16 17 17 18 17 17 17 17 17 19 19 3 8 14 13 15 11 7 8 8 6 3 5 4 5 6 11 9 7 7 5 2 3 4 8 11 6 6 2 6
15 15 15 17 19 19 18 18 18 18 18 16 16 16 17 15 5 11 9 22 14 15 7 7 9 8 5 4 7 7 10 15 8 9 3 6 9 3 3 9 8 8 15 3 7
17 17 17 16 17 18 19 19 18 17 16 16 17 17 17 3 9 2 9 3 6 13 8 9 6 8 8 10 7 4 11 18 12 5 3 8 5 13 10 19 15 14 9 5 10
17 18 18 17 17 17 17 19 19 19 17 15 14 14 6 4 11 8 18 11 6 4 8 10 8 8 9 7 5 8 12 8 8 10 8 13 13 15 16 22 14 10 8 11 13
17 17 18 17 17 17 16 16 16 17 18 17 14 12 5 17 8 8 12 7 7 4 4 7 10 8 5 7 7 6 9 9 4 10 13 16 20 4 13 17 13 11 12 11 14
18 18 19 20 20 20 20 18 17 17 19 17 15 9 14 27 7 12 19 6 6 5 8 10 4 8 6 2 5 4 4 8 10 11 8 14 20 10 18 13 12 16 13 11 15
19 19 20 21 21 21 22 21 20 22 22 18 13 9 13 7 10 17 18 11 13 11 3 5 6 4 4 1 4 1 2 4 5 6 7 9 17 10 19 10 16 15 12 10 13
19 18 19 21 21 22 22 22 25 22 15 9 6 7 14 10 7 16 17 12 5 9 6 7 6 7 3 6 2 2 9 7 8 9 5 9 16 18 7 7 13 16 12 10 14
19 18 18 20 22 21 22 24 19 3 6 6 5 2 8 4 8 6 8 20 7 8 6 7 5 6 5 7 15 7 6 6 13 1 4 12 16 19 17 10 16 13 14 12 12
21 20 20 19 19 18 17 7 4 2 0 5 7 8 15 8 8 7 5 11 6 5 10 7 7 22 27 20 9 14 9 11 14 2 3 8 9 18 12 7 11 12 11 13 12
22 22 21 19 19 19 6 1 3 2 11 11 18 23 25 14 12 13 13 8 10 15 11 6 29 19 12 18 19 9 14 22 15 6 4 11 13 17 15 13 11 13 14 12 4
21 21 21 19 19 4 0 5 6 9 5 10 11 9 12 13 17 18 9 7 7 13 25 27 17 13 18 15 15 19 20 17 17 5 5 6 10 16 13 8 7 10 11 9 9
20 20 19 19 5 2 5 2 5 6 4 9 5 8 6 7 10 27 7 7 6 19 16 20 22 18 17 24 19 23 17 14 14 4 6 4 7 13 12 12 7 10 8 8 0
20 20 18 12 5 4 4 6 7 1 5 2 4 3 3 8 6 6 25 9 9 11 11 12 19 28 24 21 20 12 10 12 9 5 1 3 4 7 5 10 11 11 9 6 4
20 20 18 6 3 6 4 6 1 1 9 4 4 11 5 5 10 7 11 15 6 8 11 9 6 21 22 13 19 5 6 4 2 3 4 11 7 6 6 9 8 7 4 4 6
20 20 15 7 4 4 2 2 2 5 6 3 7 13 11 15 6 2 7 19 14 10 10 5 10 2 9 8 8 10 10 1 3 1 6 7 9 15 10 10 12 12 7 5 9
20 18 4 4 1 2 2 2 6 5 7 11 9 10 10 14 13 14 7 5 20 4 8 8 4 12 8 9 12 17 13 9 8 5 5 7 9 9 19 22 9 6 3 8 9
17 3 4 2 4 3 2 3 4 4 6 10 8 5 5 10 7 11 7 6 5 12 5 9 11 5 19 10 18 7 16 10 4 2 1 5 5 7 7 8 7 7 6 9 9
4 4 4 3 4 2 1 4 3 3 8 8 2 4 5 10 8 11 7 12 10 12 5 5 2 13 15 12 17 15 12 7 4 7 5 5 3 6 7 10 6 6 9 7 7
3 3 3 4 1 2 2 4 4 8 9 4 2 3 6 10 6 3 5 16 17 19 9 3 2 4 11 19 15 5 10 4 6 6 6 1 7 8 9 8 9 9 8 10 12
3 4 4 2 1 1 2 3 6 7 6 5 4 7 8 10 6 5 5 5 14 18 11 4 2 5 15 7 18 20 10 9 11 7 3 3 8 4 7 7 8 8 8 7 8
3 3 3 4 2 3 4 6 4 4 4 3 4 5 5 7 6 9 3 3 8 12 12 10 5 2 4 3 5 23 13 12 6 5 15 5 6 2 3 6 5 7 9 9 10
3 5 5 3 1 4 6 5 5 5 7 4 4 4 3 9 7 6 9 5 3 12 15 9 4 4 6 2 5 17 19 18 8 5 7 21 5 4 7 8 5 7 7 9 10
3 3 2 4 4 9 6 4 7 7 3 7 4 1 5 4 6 7 3 7 5 1 3 6 5 4 11 13 9 1 18 20 20 13 7 5 14 7 10 11 9 7 9 10 11
2 3 2 4 7 9 3 3 5 4 3 5 3 8 8 5 5 12 6 2 5 7 3 7 5 6 6 12 8 11 6 20 24 20 14 6 9 9 7 7 6 12 12 12 13
3 1 1 5 5 3 4 4 6 13 8 8 7 10 10 10 4 8 7 11 11 7 4 2 4 6 5 10 8 9 21 11 10 15 15 16 15 5 4 7 9 9 15 16 15
Wind_Direction
349 344 342 338 335 332 332 326 326 330 332 333 339 341 339 333 324 309 248 227 198 184 136 126 115 158 111 225 147 119 99 248 237 173 244 230 349 27 186 235 250 217 237 251 120
346 341 338 335 337 334 333 332 332 328 323 326 331 335 335 330 304 244 241 250 217 164 144 151 154 155 183 196 202 159 167 227 200 190 234 182 174 344 340 318 286 257 283 322 150
344 343 343 338 331 332 332 329 327 324 322 322 327 330 331 332 317 248 245 233 230 184 179 159 132 149 196 168 204 194 209 232 275 238 347 293 287 206 267 280 248 282 293 217 182
340 339 339 336 334 332 326 324 322 318 320 324 328 329 326 305 237 68 103 65 294 187 166 155 150 159 189 207 203 187 235 237 249 253 255 256 323 298 259 258 275 278 255 192 203
344 343 339 333 327 322 321 318 316 319 320 316 316 322 342 263 242 264 321 359 50 136 181 166 157 163 181 195 197 226 238 240 264 288 255 273 261 254 285 283 281 269 259 225 208
337 338 335 330 326 320 312 313 308 311 310 309 307 307 264 252 248 316 3 335 184 186 208 184 186 181 194 205 179 222 225 248 261 273 272 277 269 258 257 276 288 289 257 237 212
337 334 332 331 329 325 321 316 309 304 299 293 293 288 255 243 260 302 306 284 321 218 203 223 254 170 165 290 220 230 265 268 229 235 247 270 277 248 266 271 262 269 260 241 226
334 332 332 330 327 324 323 314 305 291 285 278 276 279 255 247 239 259 261 274 251 279 280 238 229 257 187 244 0 303 160 261 190 222 241 186 278 263 266 256 261 261 261 244 242
330 328 329 327 324 324 321 314 303 300 288 251 235 233 272 312 244 242 236 226 274 205 234 275 168 194 137 169 352 327 258 256 298 209 211 184 279 266 269 251 271 271 270 256 258
326 326 325 323 324 325 323 316 305 61 85 138 231 276 257 224 293 231 183 199 199 148 150 187 202 177 182 160 209 195 245 228 246 321 171 270 266 272 271 249 256 268 267 265 251
328 328 325 324 324 323 331 342 16 2 315 202 196 249 281 303 329 305 154 156 213 151 171 180 191 214 204 208 197 224 224 238 253 197 230 250 271 274 278 252 260 260 265 255 240
329 329 329 326 322 324 325 278 31 55 298 244 242 235 247 261 291 289 148 146 189 194 146 160 220 214 186 202 209 198 227 245 276 229 225 271 272 283 285 265 251 265 274 264 221
325 326 327 326 320 30 224 257 341 326 257 277 226 234 233 209 226 249 242 165 177 183 193 201 219 187 196 199 196 216 216 232 245 359 257 300 289 286 284 262 280 260 247 265 227
321 322 326 332 352 290 278 301 323 303 301 267 216 246 205 207 237 235 229 184 188 197 191 231 227 192 194 209 188 219 208 240 251 160 244 112 288 292 302 287 246 279 293 285 212
315 318 322 329 288 284 271 325 327 85 309 246 174 155 247 195 313 250 206 229 200 176 169 211 189 204 204 201 189 231 183 207 225 210 317 247 274 270 309 290 284 284 288 278 139
315 317 322 305 208 243 358 317 95 127 245 273 71 340 340 252 260 292 174 229 194 200 237 204 205 200 211 200 199 176 92 69 71 127 252 236 196 252 216 226 268 271 292 109 126
322 314 310 280 259 131 360 22 145 211 317 34 348 346 336 348 343 337 238 193 195 184 205 169 223 211 154 143 164 162 122 296 317 258 221 202 194 245 261 238 231 253 249 169 138
321 313 283 243 319 227 95 85 216 247 248 1 340 329 318 16 335 353 335 187 224 249 180 188 190 190 177 184 167 181 171 161 188 202 243 191 211 247 218 233 230 240 215 149 145
321 330 297 260 194 181 163 197 230 355 9 344 338 1 331 14 340 346 331 355 27 238 254 190 229 167 175 174 161 190 210 161 128 229 128 228 266 299 222 218 230 222 169 175 151
317 333 296 318 155 163 113 257 274 6 336 337 355 330 341 341 319 352 322 31 2 356 348 268 230 213 198 174 196 185 138 168 204 193 228 287 251 221 200 215 195 202 199 155 131
33 28 272 66 308 40 173 258 293 290 335 293 323 315 308 305 331 341 287 310 353 354 336 308 165 272 146 202 172 149 176 139 154 151 168 180 260 215 200 198 210 219 183 159 165
345 27 296 264 360 3 292 288 311 289 300 263 251 228 263 293 314 319 259 253 341 335 344 302 309 249 208 172 194 199 180 164 191 193 173 166 263 250 226 214 202 199 159 155 149
334 283 313 61 30 319 291 279 260 289 308 305 307 327 312 310 320 321 37 128 290 332 348 341 306 165 350 166 207 201 198 187 85 103 206 158 249 334 264 221 228 183 155 149 147
4 348 330 38 255 334 336 287 316 291 310 297 275 275 292 283 257 274 289 303 248 299 313 319 269 256 213 253 121 199 201 190 146 154 175 222 243 253 283 243 202 163 155 144 156
26 289 256 329 330 321 303 291 309 339 328 327 314 299 350 293 319 271 358 343 263 335 344 322 279 289 279 271 298 38 203 207 212 211 171 207 207 218 224 221 207 158 132 142 159
73 347 321 277 308 323 318 264 301 311 285 290 238 304 298 249 255 286 309 258 251 135 130 325 282 337 299 282 279 272 255 216 209 216 233 226 246 211 256 96 164 166 161 170 182
284 285 262 285 314 324 262 330 306 318 286 226 279 300 298 290 281 275 274 265 251 293 162 164 315 351 291 336 315 258 237 230 231 215 197 209 223 172 207 204 199 184 176 182 183